Location: Stoke Bliss
(52.2667°N, 2.5167°W)
Time: 11:49:06
(UTC+00:00)

N. Korean satellite - Pass Details

Date: 02 December 2021
Orbit: 447 x 491 km, 97.3° (Epoch: 21 January)

Event Time Altitude Azimuth Distance (km) Brightness Sun altitude
Rises 05:45:15 0° 12° (NNE) 2,483 10.2 -19.3°
Reaches altitude 10° 05:47:19 10° 10° (N) 1,598 9.2 -19.0°
Maximum altitude 05:50:43 74° 285° (WNW) 473 6.2 -18.5°
Drops below altitude 10° 05:54:05 10° 201° (SSW) 1,573 9.1 -18.0°
Sets 05:56:06 0° 199° (SSW) 2,439 10.1 -17.7°
